Regional Weather Roundup
Issued by NWS

Home | Current Version | Previous Version | Graphics & Text | Print | Product List | Glossary On
Versions: 1 2 3 4 5 6 7 8 9 10 11 12 13 14 15 16 17 18 19 20 21 22 23 24 25 26 27 28 29 30 31 32 33 34 35 36 37 38 39 40 41 42 43 44 45 46 47 48 49 50
000
ASUS43 KOAX 021002
RWRNE

WEATHER ROUNDUP FOR NEBRASKA
NATIONAL WEATHER SERVICE OMAHA NE
500 AM CDT THU OCT 02 2014

NOTES: SATELLITE DATA IS BEING USED TO AUGMENT CLOUD COVER ABOVE
       12000 FEET.
       "FAIR" INDICATES FEW OR NO CLOUDS BELOW 12,000 FEET WITH NO
       SIGNIFICANT WEATHER AND/OR OBSTRUCTIONS TO VISIBILITY.

  * THESE STATIONS DO NOT REPORT WEATHER SUCH AS RAIN...SNOW OR FOG.

NEZ001>004-019>022-054>056-021100-
NEBRASKA PANHANDLE

CITY           SKY/WX    TMP DP  RH WIND       PRES   REMARKS
SCOTTSBLUFF    CLEAR     40  39  97 NW5       30.07R
ALLIANCE       PTCLDY    41  39  93 W9        30.04R
CHADRON        CLEAR     41  39  93 SW10      30.03S
KIMBALL        MOCLDY    39  37  95 NW7       30.06S WCI  34
SIDNEY         MOCLDY    43  40  89 NW13      30.06R
$$

NEZ057>060-069>072-079>082-021100-
SOUTHWEST NEBRASKA

CITY           SKY/WX    TMP DP  RH WIND       PRES   REMARKS
NORTH PLATTE   CLOUDY    51  47  86 N9        29.96R
IMPERIAL       CLOUDY    50  46  86 NW14      30.00R
LEXINGTON      LGT RAIN  53  51  92 NE6       29.93F
MCCOOK         CLOUDY    52  49  89 NW15      29.96R
OGALLALA       MOCLDY    47  46  95 W7        30.02R
$$

NEZ005>010-023>029-035>040-094-021100-
NORTH CENTRAL NEBRASKA

CITY           SKY/WX    TMP DP  RH WIND       PRES   REMARKS
VALENTINE      CLOUDY    50  47  89 NW7       29.97R
AINSWORTH      CLOUDY    50  50  99 NW7       29.96R
BROKEN BOW     LGT RAIN  52  50  93 N8        29.94S
O`NEILL        DRIZZLE   52  51  98 N8        29.92F
ORD            CLOUDY    52  49  89 N12       29.91R
THEDFORD       CLOUDY    50  48  92 NW10      29.97S
$$

NEZ041-046>049-061>064-073>077-083>087-021100-
SOUTH CENTRAL NEBRASKA

CITY           SKY/WX    TMP DP  RH WIND       PRES   REMARKS
GRAND ISLAND   MOCLDY    54  51  90 N17       29.86R
AURORA         CLOUDY    55  54  95 N17G28    29.83R
HASTINGS       CLOUDY    54  50  86 N18       29.85R
HEBRON         MOCLDY    57  54  90 NW5       29.78R
HOLDREGE       LGT RAIN  52  50  92 N18G25    29.88F
KEARNEY *      CLOUDY    54  48  82 NW18G24   29.89F
YORK           CLOUDY    55  55 100 N17G23    29.79F
$$

NEZ011>018-030>034-042>045-021100-
NORTHEAST NEBRASKA

CITY           SKY/WX    TMP DP  RH WIND       PRES   REMARKS
NORFOLK        HVY RAIN  53  52  96 NW15      29.88F FOG
ALBION         DRIZZLE   53  50  92 N16       29.87F
BLAIR          FOG       64  63  96 CALM      29.78S VSB<1/4
COLUMBUS *     CLOUDY    54  50  87 N15G22    29.85F
FREMONT        CLOUDY    64  62  93 W12       29.81R FOG
TEKAMAH        CLOUDY    62  60  93 SW6       29.78R FOG
WAYNE          DRIZZLE   56  53  88 NW17G25   29.87R
$$

NEZ050>053-065>068-078-088>093-021100-
SOUTHEAST NEBRASKA

CITY           SKY/WX    TMP DP  RH WIND       PRES   REMARKS
LINCOLN        LGT RAIN  61  58  90 NW24G35   29.82R
OMAHA EPPLEY   FOG       64  63  96 CALM      29.76F VSB 1/4
BEATRICE       CLOUDY    65  64  98 N7        29.75R FOG
FALLS CITY     CLOUDY    65  64  97 NE6       29.73R
NEBRASKA CITY  CLOUDY    65  65 100 NE7       29.74R FOG
PLATTSMOUTH    FOG       64  62  94 CALM      29.75F VSB 1/4
$$

NEZ044-045-051>053-067-021100-
OMAHA AREA

CITY           SKY/WX    TMP DP  RH WIND       PRES   REMARKS
OMAHA EPPLEY   FOG       64  63  96 CALM      29.76F VSB 1/4
BLAIR          FOG       64  63  96 CALM      29.78S VSB<1/4
FREMONT        CLOUDY    64  62  93 W12       29.81R FOG
MILLARD        FOG       65  64  97 CALM      29.77R VSB 1/2
OFFUTT AFB     FOG       64  64 100 NE3       29.75S VSB 3/4
PLATTSMOUTH    FOG       64  62  94 CALM      29.75F VSB 1/4
WAHOO          LGT RAIN  63  60  90 W9        29.81R
$$


USA.gov is the U.S. government's official web portal to all federal, state and local government web resources and services.